Regional Weather Roundup
Issued by NWS Memphis, TN

Home | Current Version | Previous Version | Text Only | Print | Product List | Glossary On
Versions: 1 2 3 4 5 6 7 8 9 10 11 12 13 14 15 16 17 18 19 20 21 22 23 24 25 26 27 28 29 30 31 32 33 34 35 36 37 38 39 40 41 42 43 44 45 46 47 48 49 50
000
ASUS44 KMEG 201410
RWRMEG
MEMPHIS CWA HOURLY WEATHER ROUNDUP
NATIONAL WEATHER SERVICE MEMPHIS TN
900 AM CDT SUN APR 20 2014

...WEST TENNESSEE...

CITY           SKY/WX    TMP DP  RH WIND       PRES   REMARKS
MEMPHIS INTL   MOSUNNY   66  46  48 S9        30.22R
NWS MEMPHIS      N/A     67 N/A N/A MISG        N/A
JACKSON        MOSUNNY   65  45  48 VRB3      30.23R
LEXINGTON      SUNNY     61  48  63 CALM      30.23S
SAVANNAH       MOSUNNY   62  49  62 CALM      30.24F
DYERSBURG      SUNNY     63  45  51 SE5       30.24R
UNION CITY     SUNNY     63  48  59 SE3       30.21S
PARIS          SUNNY     61  42  49 SE6       30.23S


...EASTERN ARKANSAS...

CITY           SKY/WX    TMP DP  RH WIND       PRES   REMARKS
JONESBORO      SUNNY     63  47  55 E5        30.21R
WEST MEMPHIS   SUNNY     64  51  62 S7        30.21R
BATESVILLE     MOSUNNY   63  48  59 CALM      30.21S
NEWPORT        SUNNY     62  51  67 CALM      30.22S
WALNUT RIDGE   SUNNY     59  50  72 NE3       30.22R
BLYTHEVILLE    SUNNY     64  47  53 S6        30.22R
SEARCY         MOSUNNY   62  52  70 NW3       30.22S
STUTTGART      MOSUNNY   64  52  63 NE3       30.22R
PINE BLUFF     MOSUNNY   64  56  75 CALM      30.21R
MONTICELLO     SUNNY     67  52  58 E3        30.20R


...NORTH MISSISSIPPI...

CITY           SKY/WX    TMP DP  RH WIND       PRES   REMARKS
TUPELO         SUNNY     63  45  51 S14G22    30.25R
OXFORD         SUNNY     61  48  63 S5        30.26R
OLIVE BRANCH   PTSUNNY   63  46  55 S12       30.23R
TUNICA         SUNNY     64  50  59 SE8       30.22R
CLARKSDALE       N/A     64  52  63 SE5       30.22S
CORINTH        SUNNY     63  48  59 S10       30.24S
GRENADA        SUNNY     63  52  67 SE6       30.24R
GREENWOOD      SUNNY     64  53  67 SE9       30.22R
COLUMBUS       SUNNY     62  49  61 SE6       30.26R
STARKVILLE     FAIR      61  50  67 SE7       30.25S
GOLDEN TRIANGL SUNNY     63  46  55 SE9       30.28R


...SOUTHEAST MISSOURI...

CITY           SKY/WX    TMP DP  RH WIND       PRES   REMARKS
DONIPHAN         N/A     62  44  52 E3          N/A
WEST PLAINS    SUNNY     63  44  50 SE5       30.22F
POPLAR BLUFF   MOSUNNY   62  45  53 CALM      30.20S
CAPE GIRARDEAU MOSUNNY   63  46  54 SE8       30.21F


...NORTHWEST ALABAMA...

CITY           SKY/WX    TMP DP  RH WIND       PRES   REMARKS
MUSCLE SHOALS  SUNNY     62  47  57 S3        30.26S


...MIDDLE TENNESSEE...

CITY           SKY/WX    TMP DP  RH WIND       PRES   REMARKS
NASHVILLE      MOSUNNY   62  43  49 CALM      30.24S
CLARKSVILLE    SUNNY     59  43  55 SE3       30.24S
DICKSON        SUNNY     64  39  39 S7        30.23S
COLUMBIA       SUNNY     63  52  67 CALM      30.23S
LEWISBURG      SUNNY     59  49  69 CALM      30.24R


...WESTERN KENTUCKY...

CITY           SKY/WX    TMP DP  RH WIND       PRES   REMARKS
PADUCAH        SUNNY     66  46  48 SE7       30.22S
FORT CAMPBELL  SUNNY     61  43  51 SE3       30.24S


...CENTRAL ARKANSAS...

CITY           SKY/WX    TMP DP  RH WIND       PRES   REMARKS
LITTLE ROCK    PTSUNNY   64  55  72 CALM      30.21S


SKY/WX REPORTED AS FAIR MEANS FEW OR NO CLOUDS BELOW
12 THOUSAND FEET.




USA.gov is the U.S. government's official web portal to all federal, state and local government web resources and services.